Worcester, MA

4:51 PM EDT on April 24, 2018 (GMT -0400)
Worcester Regional

Weather History for KORH - May, 2014

Change the Weather History Date:

Sunday, May 25, 2014

  Actual Average Record
Temperature  
Mean Temperature 58 °F 59 °F  
Max Temperature 67 °F 68 °F 88 °F (1932)
Min Temperature 48 °F 50 °F 33 °F (1956)
Degree Days  
Heating Degree Days 7 7  
Month to date heating degree days 205 250  
Since 1 July heating degree days 6970 6597  
Cooling Degree Days 0 1  
Month to date cooling degree days 6 10  
Year to date cooling degree days 6 13  
Growing Degree Days 7 (Base 50)    
Moisture  
Dew Point 51 °F    
Average Humidity 79    
Maximum Humidity 100    
Minimum Humidity 58    
Precipitation  
Precipitation 0.38 in 0.15 in 3.03 in (1967)
Month to date precipitation 3.67 3.30  
Year to date precipitation 20.71 18.34  
Snow  
Snow 0.00 in 0.00 in T in (1967)
Month to date snowfall 0.0 0.0  
Since 1 July snowfall 85.2 64.1  
Snow Depth -    
Sea Level Pressure  
Sea Level Pressure 30.06 in    
Wind  
Wind Speed 7 mph (SE)    
Max Wind Speed 16 mph    
Max Gust Speed 24 mph    
Visibility 7 miles    
Events Fog , Rain , Thunderstorm    
T = Trace of Precipitation, MM = Missing Value Source: NWS Daily Summary

Daily Weather History Graph

Daily Weather History Graph

Search for Another Location

Airport or City:

Astronomy

May. 25, 2014 Rise Set
Actual Time 5:17 AM EDT 8:11 PM EDT
Civil Twilight 4:44 AM EDT 8:44 PM EDT
Nautical Twilight 4:02 AM EDT 9:27 PM EDT
Astronomical Twilight 3:13 AM EDT 10:16 PM EDT
Moon 3:24 AM EDT (5/25) 5:05 PM EDT (5/25)
Length of Visible Light 16h 00m
Length of Day
14h 53m
Waning Crescent, 10% of the Moon is Illuminated
May 25
Waning Crescent
May 28
New
Jun 5
First Quarter
Jun 13
Full
Jun 19
Last Quarter

Hourly Weather History & Observations

Time (EDT) Temp. Dew Point Humidity Pressure Visibility Wind Dir Wind Speed Gust Speed Precip Events Conditions
12:54 AM 52.0 °F 50.0 °F 93% 30.05 in 10.0 mi WNW 6.9 mph - N/A   Clear
1:54 AM 51.8 °F 48.2 °F 88% 30.03 in 10.0 mi WNW 8.1 mph - N/A   Clear
2:54 AM 51.1 °F 48.0 °F 89% 30.03 in 10.0 mi WNW 9.2 mph - N/A   Clear
3:54 AM 52.0 °F 50.0 °F 93% 30.04 in 10.0 mi NNW 3.5 mph - N/A   Clear
4:54 AM 52.0 °F 50.0 °F 93% 30.04 in 10.0 mi NW 6.9 mph - N/A   Overcast
5:54 AM 48.9 °F 48.0 °F 97% 30.06 in 4.0 mi ENE 5.8 mph - N/A   Mostly Cloudy
5:56 AM 48.9 °F 48.0 °F 97% 30.05 in 1.2 mi ENE 4.6 mph - N/A   Mostly Cloudy
5:59 AM 48.9 °F 48.0 °F 97% 30.05 in 0.5 mi East 4.6 mph - N/A Fog Fog
6:05 AM 48.9 °F 48.0 °F 97% 30.05 in 0.2 mi ENE 4.6 mph - N/A Fog Fog
6:15 AM 48.9 °F 48.0 °F 97% 30.05 in 0.2 mi ENE 3.5 mph - N/A Fog Fog
6:54 AM 48.9 °F 48.9 °F 100% 30.07 in 0.2 mi Calm Calm - N/A Fog Fog
7:52 AM 50.0 °F 48.2 °F 94% 30.08 in 0.2 mi Variable 3.5 mph - N/A Fog Fog
7:54 AM 50.0 °F 48.9 °F 96% 30.09 in 0.2 mi ENE 3.5 mph - N/A Fog Fog
8:04 AM 50.0 °F 48.9 °F 96% 30.08 in 0.2 mi Calm Calm - N/A Fog Fog
8:26 AM 50.0 °F 50.0 °F 100% 30.09 in 0.2 mi Calm Calm - N/A Fog Fog
8:54 AM 52.0 °F 51.1 °F 97% 30.10 in 2.5 mi East 4.6 mph - N/A   Overcast
9:04 AM 53.1 °F 51.1 °F 93% 30.09 in 3.0 mi NE 3.5 mph - N/A   Mostly Cloudy
9:24 AM 55.0 °F 52.0 °F 89% 30.08 in 3.0 mi NNE 4.6 mph - N/A   Partly Cloudy
9:54 AM 55.9 °F 52.0 °F 87% 30.10 in 10.0 mi Variable 3.5 mph - N/A   Partly Cloudy
10:54 AM 60.8 °F 53.6 °F 77% 30.09 in 10.0 mi ESE 5.8 mph - N/A   Clear
11:54 AM 64.0 °F 53.1 °F 67% 30.09 in 10.0 mi ESE 6.9 mph - N/A   Clear
12:54 PM 66.0 °F 52.0 °F 60% 30.07 in 10.0 mi SSE 6.9 mph - N/A   Mostly Cloudy
1:27 PM 64.0 °F 50.0 °F 60% 30.07 in 10.0 mi East 4.6 mph - N/A Thunderstorm Thunderstorm
1:39 PM 59.0 °F 52.0 °F 78% 30.08 in 1.8 mi NNE 15.0 mph 24.2 mph 0.03 in Rain , Thunderstorm Heavy Thunderstorms and Rain
1:54 PM 57.0 °F 54.0 °F 89% 30.09 in 2.0 mi SE 10.4 mph - 0.38 in Rain , Thunderstorm Light Thunderstorms and Rain
2:01 PM 57.0 °F 52.0 °F 83% 30.07 in 10.0 mi SSE 6.9 mph - 0.00 in Thunderstorm Thunderstorm
2:14 PM 61.0 °F 53.1 °F 75% 30.07 in 10.0 mi Variable 3.5 mph - 0.00 in Thunderstorm Partly Cloudy
2:41 PM 62.1 °F 52.0 °F 70% 30.06 in 10.0 mi SE 6.9 mph - 0.00 in   Clear
2:54 PM 63.0 °F 52.0 °F 67% 30.07 in 10.0 mi SE 6.9 mph - 0.00 in   Clear
3:03 PM 63.0 °F 53.1 °F 70% 30.06 in 10.0 mi SE 6.9 mph - N/A Thunderstorm Clear
3:18 PM 64.9 °F 54.0 °F 68% 30.05 in 10.0 mi SE 6.9 mph - N/A   Partly Cloudy
3:54 PM 63.0 °F 54.0 °F 72% 30.05 in 10.0 mi SSE 5.8 mph - 0.00 in Rain Light Rain
4:54 PM 66.0 °F 52.0 °F 60% 30.04 in 10.0 mi South 8.1 mph - 0.00 in   Clear
5:54 PM 66.9 °F 55.9 °F 68% 30.03 in 10.0 mi South 9.2 mph - N/A   Clear
6:54 PM 64.9 °F 54.0 °F 68% 30.04 in 10.0 mi SSW 10.4 mph - N/A   Clear
7:54 PM 61.0 °F 55.0 °F 81% 30.05 in 10.0 mi SSW 6.9 mph - N/A   Clear
8:54 PM 59.0 °F 54.0 °F 83% 30.06 in 10.0 mi SSW 9.2 mph - N/A   Clear
9:54 PM 55.9 °F 54.0 °F 93% 30.06 in 10.0 mi WSW 9.2 mph - N/A   Clear
10:54 PM 55.9 °F 53.1 °F 90% 30.05 in 10.0 mi WSW 11.5 mph - N/A   Clear
11:54 PM 55.9 °F 52.0 °F 87% 30.04 in 10.0 mi West 11.5 mph - N/A   Clear